Location: Unspecified
(56.5167°N, 0.0000°E)
Time: 07:53:32
(UTC+02:00)

Resurs 1-4 Rocket - Pass Details

Date: 04 August 2020
Orbit: 799 x 815 km, 98.6° (Epoch: 21 September)

Event Time Altitude Azimuth Distance (km) Brightness Sun altitude
Rises 03:01:54 0° 20° (NNE) 3,343 7.2 -15.4°
Reaches altitude 10° 03:04:26 10° 29° (NNE) 2,404 5.8 -15.3°
Maximum altitude 03:09:20 36° 95° (E) 1,256 3.2 -15.1°
Enters shadow 03:13:16 15° 157° (SSE) 2,072 3.8 -15.0°
